Location: Vaughan
(31.9146°N, 97.1736°W)
Time: 17:33:14
(UTC+00:00)

SL-16 R/B - Visible Passes

Search period start: 14 March 2026 00:00
Search period end: 24 March 2026 00:00
Orbit: 985 x 1006 km, 99.8° (Epoch: 13 March)

Date Brightness Start Highest point End Pass type
(mag) Time Alt. Az. Time Alt. Az. Time Alt. Az.
14 Mar 3.3 09:57:09 10° SE 10:03:02 50° ENE 10:08:58 10° N visible
14 Mar 3.6 11:42:21 10° SW 11:46:45 20° W 11:51:11 10° NW visible
15 Mar 5.3 08:49:07 10° ENE 08:50:58 11° ENE 08:52:50 10° NE visible
15 Mar 2.4 10:27:26 10° SSE 10:33:36 90° NE 10:39:49 10° NNW visible
16 Mar 5.6 01:03:27 10° NW 01:05:28 12° WNW 01:07:29 10° W visible
16 Mar 4.6 09:16:40 10° ESE 09:21:12 22° ENE 09:25:44 10° NNE visible
16 Mar 2.6 10:58:23 10° S 11:04:18 49° W 11:10:17 10° NNW visible
17 Mar 3.7 09:45:56 10° SE 09:51:34 39° ENE 09:57:16 10° N visible
17 Mar 3.3 11:30:06 10° SSW 11:35:07 26° W 11:40:12 10° NW visible
18 Mar 2.7 10:15:58 10° SSE 10:22:06 72° ENE 10:28:16 10° N visible
18 Mar 4.0 12:03:19 10° WSW 12:06:05 13° W 12:08:51 10° WNW visible
19 Mar 4.9 09:06:01 10° ESE 09:09:49 17° ENE 09:13:38 10° NNE visible
19 Mar 2.4 10:46:40 10° S 10:52:45 63° WSW 10:58:54 10° NNW visible
20 Mar 4.1 09:34:50 10° SE 09:40:08 31° ENE 09:45:29 10° N visible
20 Mar 3.1 11:18:03 10° SSW 11:23:32 33° W 11:29:04 10° NW visible
21 Mar 3.1 10:04:36 10° SSE 10:10:36 57° ENE 10:16:40 10° N visible
21 Mar 3.8 11:50:29 10° SW 11:54:25 18° W 11:58:24 10° NW visible
22 Mar 5.2 08:55:41 10° E 08:58:28 13° ENE 09:01:16 10° NE visible
22 Mar 2.4 10:35:02 10° S 10:41:13 80° WSW 10:47:27 10° NNW visible
23 Mar 4.5 09:23:52 10° ESE 09:28:44 25° ENE 09:33:37 10° NNE visible
23 Mar 2.8 11:06:08 10° S 11:11:56 43° W 11:17:48 10° NNW visible
